Home > Weather > Merseburg > Past weeks

Flag for Germany Weather for the Past 2 Weeks in Merseburg, Saxony-Anhalt, Germany

Now
43 °F

Passing clouds.


Feels Like: 35 °F
Forecast: 44 / 50 °F
Wind: 17 mph from South

Location: Leipzig-Schkeuditz

Current Time: Feb 8, 2016 at 6:05:51 AM

Latest Report: Feb 8, 2016 at 5:20 AM


Visibility: N/A

Pressure: 29.62 "Hg

Humidity: 71%

Dew point: 34 °F

Location of MerseburgLocation

Historic Weather in Merseburg — Graph

°F

Merseburg Temperature Yesterday

Maximum temperature yesterday: 50 °F (at 1:50 PM)
Minimum temperature yesterday: 37 °F (at 3:20 AM)
Average temperature yesterday: 45 °F

High & Low Weather Summary for the Past Weeks

 TemperatureHumidityPressure
High54 °F (Jan 26, 12:50 PM)100% (Jan 24, 4:50 AM)30.51 "Hg (Jan 24, 4:50 AM)
Low34 °F (Jan 28, 10:20 PM)53% (Feb 3, 3:50 PM)29.59 "Hg (Feb 7, 11:50 AM)
Average44 °F80%30.03 "Hg
* Reported Jan 24 4:20 AM — Feb 8 4:20 AM, Merseburg, Weather by CustomWeather, © 2016

Note: Actual official high and low records may vary slightly from our data, if they occured in-between our weather recording intervals... More about our weather records

Advertising

Merseburg Weather History for the Previous 24 Hours

 ConditionsComfort  
Time TempWeatherWind HumidityBarometerVisibility
4:20 AM
Mon, Feb 8
43 °FClear.15 mph71%29.65 "Hg10 mi
3:50 AM43 °FClear.13 mph76%29.65 "Hg10 mi
2:50 AM43 °FClear.12 mph76%29.68 "Hg10 mi
2:20 AM43 °FPassing clouds.10 mph76%29.68 "HgN/A
1:50 AM43 °FPassing clouds.10 mph76%29.68 "HgN/A
1:20 AM43 °FPassing clouds.10 mph76%29.71 "HgN/A
12:50 AM45 °FClear.12 mph71%29.71 "Hg10 mi
12:20 AM45 °FPassing clouds.15 mph71%29.71 "HgN/A
11:50 PM
Sun, Feb 7
45 °FClear.14 mph71%29.71 "Hg10 mi
11:20 PM46 °FClear.13 mph66%29.71 "Hg10 mi
10:50 PM46 °FClear.13 mph71%29.71 "Hg10 mi
10:20 PM46 °FClear.13 mph71%29.71 "Hg10 mi
9:50 PM46 °FClear.15 mph71%29.71 "Hg10 mi
9:20 PM46 °FClear.15 mph76%29.68 "Hg10 mi
8:50 PM46 °FPartly cloudy.15 mph76%29.68 "HgN/A
8:20 PM46 °FPartly cloudy.14 mph76%29.68 "HgN/A
7:50 PM46 °FPartly cloudy.9 mph76%29.65 "HgN/A
7:20 PM46 °FPassing clouds.8 mph71%29.65 "HgN/A
6:50 PM46 °FPassing clouds.9 mph71%29.62 "HgN/A
6:20 PM46 °FClear.9 mph71%29.62 "Hg10 mi
5:50 PM46 °FClear.9 mph71%29.62 "Hg10 mi
5:20 PM48 °FClear.8 mph62%29.62 "Hg10 mi
4:50 PM50 °FSunny.14 mph58%29.59 "Hg10 mi
4:20 PM48 °FSunny.12 mph62%29.59 "Hg10 mi
3:50 PM48 °FSunny.10 mph66%29.59 "Hg10 mi
3:20 PM50 °FSunny.12 mph62%29.59 "Hg10 mi
2:50 PM50 °FSunny.14 mph62%29.59 "Hg10 mi
2:20 PM50 °FSunny.12 mph62%29.59 "Hg10 mi
1:50 PM50 °FSunny.16 mph62%29.59 "Hg10 mi
1:20 PM48 °FBroken clouds.14 mph66%29.59 "HgN/A
12:50 PM48 °FBroken clouds.13 mph66%29.59 "HgN/A
12:20 PM48 °FSunny.13 mph66%29.59 "Hg10 mi
11:50 AM48 °FSunny.14 mph66%29.59 "Hg10 mi
11:20 AM48 °FSunny.17 mph66%29.62 "Hg10 mi
10:50 AM48 °FSunny.13 mph66%29.62 "Hg10 mi
10:20 AM46 °FSunny.13 mph66%29.62 "Hg10 mi
9:50 AM46 °FSunny.14 mph66%29.65 "Hg10 mi
9:20 AM45 °FSunny.14 mph71%29.65 "Hg10 mi
8:50 AM43 °FSunny.14 mph71%29.65 "Hg10 mi
8:20 AM43 °FSunny.13 mph71%29.65 "Hg10 mi
7:50 AM41 °FSunny.12 mph76%29.65 "Hg10 mi
7:20 AM41 °FClear.13 mph76%29.65 "Hg10 mi
6:50 AM41 °FClear.14 mph76%29.65 "Hg10 mi
6:20 AM41 °FClear.14 mph76%29.65 "Hg10 mi
Weather by CustomWeather, © 2016

See weather overviewHow to use our weather pages